Theta_e
288 288 287 287 287 287 286 287 287 287 287 286 286 286 285 284 284 283 284 283 282 282 282 282 282 282 282 282 282 281 280 280 281 277 279 280 279 279 279 280 280 280 281
287 287 287 286 286 286 286 286 286 286 286 286 285 285 284 284 284 283 283 282 282 281 281 281 281 280 280 280 280 280 280 280 279 278 277 277 277 278 278 278 279 280 280
286 286 286 287 286 285 286 286 286 286 285 285 285 284 284 283 283 283 283 282 282 282 281 280 280 279 279 279 279 279 279 278 278 277 276 277 277 278 278 278 278 280 280
285 285 285 285 286 286 286 286 285 285 285 285 285 285 284 283 283 283 283 282 282 282 281 281 280 279 279 278 278 278 278 277 277 276 275 275 275 277 277 277 277 279 278
284 284 284 285 285 285 285 286 285 284 285 284 284 284 284 283 283 282 282 282 281 281 281 280 280 280 282 280 278 278 277 276 275 274 274 274 275 275 275 277 276 277 278
283 283 284 284 284 284 284 284 284 284 283 284 283 283 283 282 286 287 284 282 281 280 279 279 279 279 280 282 282 281 278 275 274 274 274 274 275 276 277 276 276 275 274
281 282 283 283 282 282 282 283 282 283 283 282 282 283 282 283 286 288 287 282 281 280 280 279 278 278 279 280 282 282 281 280 279 276 274 276 276 277 277 275 275 275 275
279 280 281 282 281 280 280 281 282 282 282 282 282 282 282 282 286 288 287 283 281 281 280 279 278 277 278 279 280 279 279 279 279 278 277 278 278 278 277 277 277 276 275
277 278 279 279 276 277 278 280 280 281 281 281 282 282 282 282 285 287 287 284 280 280 280 279 278 277 279 281 278 278 278 278 282 283 281 280 280 280 280 277 273 271 270
276 276 278 276 275 275 278 281 281 280 280 280 281 282 282 282 284 285 285 284 280 279 278 277 279 277 280 281 278 277 276 277 276 277 278 280 281 278 278 277 274 269 269
275 275 273 274 274 275 277 276 278 279 279 279 279 279 280 280 281 284 285 283 280 278 276 275 276 280 281 282 280 277 277 277 277 276 275 275 274 274 273 273 274 272 270
272 271 270 270 271 272 271 273 276 278 277 277 278 277 278 278 280 282 285 286 282 277 276 276 277 281 281 282 280 279 279 278 276 274 272 272 271 271 272 272 273 273 273
269 267 267 268 268 269 269 270 273 277 276 276 276 275 276 276 277 280 282 285 283 278 277 278 279 281 282 282 282 280 278 275 273 271 270 271 271 271 271 271 271 271 271
265 265 265 265 265 266 268 269 270 273 276 276 275 275 275 274 275 276 279 281 281 280 278 278 279 280 281 280 280 280 276 274 272 271 270 270 270 269 269 269 268 269 268
263 263 262 263 263 264 266 267 269 272 276 276 276 276 275 274 275 277 278 280 280 279 277 276 277 277 276 276 277 274 272 271 270 269 268 268 268 268 268 269 268 267 265
260 260 260 261 262 263 263 264 270 273 276 279 281 280 278 280 280 280 281 283 283 281 275 274 274 275 273 273 270 269 269 269 269 269 268 267 267 267 267 267 267 266 264
258 259 259 260 260 260 261 262 262 267 273 277 281 282 282 279 280 280 282 283 284 281 274 274 274 273 272 271 269 268 267 268 268 268 267 266 266 266 265 265 265 265 264
258 258 258 259 259 260 261 261 263 263 265 269 277 279 282 283 281 281 281 282 280 279 274 273 272 271 269 269 268 268 267 266 266 266 266 265 264 264 263 263 264 263 263
258 259 259 260 260 261 261 262 263 263 265 267 273 275 278 283 283 281 281 279 279 276 272 271 270 270 269 268 267 266 265 265 264 263 263 262 262 261 261 262 262 262 262
259 260 260 260 260 260 261 261 262 263 264 267 271 272 275 277 279 276 278 278 279 273 270 269 268 268 267 266 265 264 263 262 261 261 261 261 261 261 262 261 262 262 262
260 260 261 261 260 260 261 261 263 264 266 270 270 271 276 276 275 275 276 274 269 267 266 265 264 264 263 263 262 261 261 261 260 260 260 260 259 259 260 261 261 261 261
261 261 262 262 263 263 262 263 265 266 269 269 268 272 276 275 270 266 265 265 266 265 265 263 262 261 261 261 260 260 260 259 259 259 259 259 258 259 259 260 260 261 261
261 261 262 264 266 266 265 267 268 269 269 269 268 265 264 263 261 261 260 261 261 261 262 261 260 259 259 259 260 260 259 259 258 257 257 257 257 258 258 258 259 260 261
261 261 262 262 263 264 264 265 265 264 263 262 262 261 261 260 259 259 259 259 259 259 260 259 259 258 257 256 256 257 257 256 256 256 255 255 256 256 257 257 259 261 262
260 260 260 260 261 262 261 261 261 261 260 260 260 259 259 259 258 258 258 258 257 257 256 257 257 257 256 255 254 254 255 258 254 253 252 253 255 255 255 257 260 261 260
258 258 258 259 259 259 260 259 259 259 259 259 259 259 258 258 258 258 258 257 257 256 255 255 255 255 254 255 255 256 256 258 256 255 254 255 256 256 258 261 261 260 258
Wind_Speed
14 13 11 11 8 7 8 11 12 10 12 13 14 15 17 18 17 17 16 14 16 14 12 13 13 11 8 8 7 6 6 5 4 3 4 7 8 9 4 4 5 6 6
13 13 12 11 10 9 10 11 9 11 11 13 13 14 16 16 17 19 20 17 19 17 15 14 14 10 12 11 8 10 8 8 4 7 6 6 7 5 4 5 4 5 6
14 13 13 14 12 11 13 12 10 11 11 12 14 16 17 17 18 19 19 19 20 20 20 19 17 16 15 12 12 10 9 7 7 4 5 3 2 1 2 3 5 6 7
16 15 13 12 14 13 13 12 11 13 14 14 15 16 16 16 18 18 19 18 18 18 18 19 19 21 19 18 15 15 11 9 9 7 5 4 4 3 4 4 5 4 8
12 13 15 13 12 12 13 12 12 10 13 13 15 15 15 15 14 17 17 17 17 17 17 18 19 20 25 22 14 15 15 11 9 8 7 5 5 5 6 4 6 6 9
13 13 13 11 14 15 15 13 12 10 10 11 12 13 15 13 23 27 21 16 18 19 18 17 15 18 24 29 26 25 21 17 14 9 8 9 11 8 7 7 6 5 4
13 13 12 11 12 14 17 16 14 11 10 12 13 13 15 16 25 27 29 16 16 17 18 16 15 13 19 18 26 25 23 23 18 13 12 11 10 11 10 9 9 7 9
11 12 13 13 15 15 14 15 15 12 10 12 12 13 15 14 24 27 30 18 16 18 18 18 19 18 20 18 17 15 15 15 15 10 11 9 9 9 9 8 7 5 7
11 11 12 13 17 17 17 15 13 13 12 11 9 12 15 14 22 26 25 18 15 17 15 16 17 16 25 28 17 17 14 12 16 19 14 12 12 13 12 5 4 4 3
12 13 12 13 14 16 17 16 12 13 14 11 11 13 17 14 20 25 24 13 16 13 13 14 24 19 32 33 18 17 15 13 11 7 7 11 11 3 6 7 6 6 4
11 12 15 14 15 15 15 16 17 14 13 14 13 11 11 11 14 25 28 15 12 12 12 12 13 29 32 33 25 16 16 13 15 9 7 5 4 4 6 6 7 6 5
11 14 15 15 14 13 16 15 17 14 14 13 12 11 9 11 17 22 28 31 20 14 14 12 13 31 32 34 25 23 23 18 9 8 7 6 6 7 6 5 6 6 6
14 16 16 17 16 15 15 16 14 14 11 12 10 10 8 7 9 22 26 29 29 14 9 15 23 31 31 28 29 27 23 10 10 8 8 7 7 6 5 4 5 6 7
17 20 18 17 17 16 13 12 12 12 12 11 11 10 8 8 9 8 10 14 24 18 17 13 18 22 22 17 17 19 10 10 11 9 7 6 6 5 5 4 3 3 5
19 19 18 15 16 15 14 12 12 14 15 11 12 10 10 10 11 15 15 11 12 15 15 11 11 12 13 11 10 9 9 8 8 7 7 8 6 5 4 4 3 2 4
20 16 14 13 13 13 13 15 23 30 32 34 30 21 10 20 18 23 26 28 25 29 12 12 12 13 12 14 11 9 9 9 7 9 8 7 7 5 4 3 3 4 5
18 18 14 15 13 13 12 13 15 15 26 32 27 28 28 15 22 22 26 30 27 29 12 13 13 12 10 10 11 10 9 9 9 8 7 7 6 5 5 3 3 4 5
18 23 16 14 14 13 13 13 12 13 13 12 16 21 22 25 21 22 24 24 15 21 11 11 11 12 11 10 10 10 10 10 9 8 8 7 6 5 4 3 3 4 6
16 14 15 14 13 15 13 13 12 13 13 13 8 12 14 23 22 21 24 11 10 12 10 9 10 10 11 10 10 10 10 10 9 8 7 6 5 4 3 3 3 7 8
15 21 20 14 13 13 12 12 12 12 11 13 7 7 6 7 9 9 9 9 7 9 10 9 8 7 9 10 9 9 8 8 7 6 6 6 5 5 4 4 4 5 6
12 13 18 14 13 13 11 11 11 10 12 6 5 5 13 8 6 7 7 5 9 10 11 10 9 8 8 9 9 8 7 6 6 5 5 5 5 4 5 4 4 6 7
11 12 12 13 13 11 10 10 10 10 7 4 3 5 17 3 6 8 9 9 9 9 9 11 9 8 7 9 9 8 7 7 6 5 4 4 4 4 3 4 5 6 7
11 12 12 11 10 7 8 8 6 3 2 1 3 6 8 7 9 8 9 8 8 9 9 10 10 8 7 7 6 7 8 7 6 6 5 4 4 4 4 4 5 6 7
10 10 10 9 8 7 7 6 6 8 7 7 7 7 8 8 10 10 9 9 9 9 9 10 9 11 8 6 4 4 4 4 4 5 5 4 4 5 4 4 7 8 8
9 9 9 9 9 8 7 8 8 9 8 8 8 8 8 9 10 10 9 9 9 10 11 9 7 9 9 9 7 6 6 8 7 6 5 6 7 6 5 6 8 8 9
10 10 9 9 9 9 8 8 8 8 8 8 8 8 9 10 9 9 9 9 9 9 9 6 7 8 7 5 5 6 7 8 7 10 7 6 6 6 7 9 11 7 7
Wind_Direction
4 354 333 299 268 245 228 224 218 210 198 194 198 200 198 193 190 190 198 192 197 196 193 195 190 174 177 180 175 175 186 181 184 167 187 183 201 222 219 249 259 260 267
355 350 349 336 302 270 252 241 223 216 204 204 200 202 201 203 199 198 193 191 194 196 193 195 192 178 177 175 181 186 190 192 176 188 174 193 206 208 241 273 262 267 275
348 349 350 353 346 308 277 263 243 230 217 211 204 204 204 201 201 206 207 196 199 199 189 191 191 183 185 173 179 183 187 185 197 180 195 201 203 258 273 281 291 293 285
340 342 347 349 340 335 314 278 246 231 230 222 218 216 212 206 205 205 204 206 203 202 198 192 193 188 189 177 179 183 179 177 187 195 197 211 246 264 259 286 288 284 291
331 334 333 332 338 334 328 311 282 243 234 223 223 222 219 209 208 202 206 206 207 201 204 199 198 195 188 187 177 178 172 177 181 188 200 185 196 192 211 213 243 271 268
331 326 320 325 334 333 328 323 307 280 252 235 228 225 222 222 221 210 203 201 207 202 201 202 202 194 186 187 191 185 180 175 180 179 193 202 204 203 200 211 230 244 273
327 323 318 320 326 328 323 323 320 299 267 251 239 228 232 231 221 217 209 200 202 212 206 201 194 193 188 182 193 190 195 194 187 178 185 196 193 197 198 205 213 224 246
314 312 320 325 323 318 312 311 311 303 275 253 255 242 238 239 231 218 211 205 205 208 212 203 196 190 188 175 176 178 187 197 190 189 203 198 198 187 209 212 222 250 264
307 311 314 319 317 316 310 306 307 300 285 273 263 258 248 237 230 229 215 202 210 210 208 202 197 187 182 177 173 175 183 189 201 196 188 205 212 221 212 187 219 233 248
303 306 308 309 303 304 301 302 300 298 286 278 262 242 246 244 230 227 219 220 205 205 194 196 190 184 186 184 174 174 179 181 171 178 200 221 226 239 245 246 229 220 208
295 301 304 302 300 296 300 300 296 287 283 271 268 262 251 240 237 227 221 216 209 200 197 196 187 188 185 187 177 174 177 156 172 169 174 175 195 230 243 230 226 216 205
295 295 297 298 295 292 288 285 283 272 267 264 257 252 241 229 232 233 231 222 198 199 200 189 192 187 187 185 173 175 169 155 155 156 163 182 197 219 222 225 232 235 238
293 290 289 288 284 281 280 282 281 274 259 261 251 250 243 239 226 240 245 232 203 204 194 188 183 185 186 186 177 175 172 153 158 161 178 184 196 195 201 221 250 261 264
293 291 291 287 286 281 277 274 272 272 264 251 249 247 246 226 227 210 234 245 195 191 193 187 188 178 179 174 178 178 158 163 160 172 165 173 173 188 196 210 239 281 289
291 290 290 286 283 282 273 273 271 270 269 257 249 242 236 232 221 209 207 221 188 175 157 163 177 179 174 169 175 144 138 137 146 141 156 176 179 181 199 205 232 280 258
288 289 286 286 284 281 281 283 271 274 273 268 254 247 233 239 240 219 215 218 188 173 169 172 180 181 170 167 151 138 135 142 160 163 174 170 172 176 193 216 244 245 263
284 286 284 281 278 277 276 277 287 284 281 284 258 252 248 219 227 225 218 217 188 172 180 179 178 171 167 163 151 156 154 152 158 170 169 168 168 171 177 208 254 278 288
279 279 278 276 273 272 269 269 269 279 287 281 258 259 256 243 211 218 220 215 186 185 182 176 167 158 157 158 155 153 146 144 157 164 167 165 167 167 174 218 262 281 291
280 275 272 270 268 267 267 266 266 267 269 281 256 258 267 237 220 202 211 217 205 182 164 164 163 158 155 150 148 145 149 149 154 160 159 161 161 165 185 210 249 273 281
283 278 273 272 272 268 265 264 263 262 264 261 242 234 242 235 216 183 199 209 200 150 147 144 133 140 140 135 131 135 133 140 152 154 159 167 160 175 196 217 240 269 278
282 281 276 273 265 262 260 258 260 257 260 238 235 226 231 223 172 168 192 154 131 122 120 118 128 128 127 124 122 130 132 147 158 157 161 170 175 183 204 224 254 257 261
288 286 286 281 274 258 246 249 254 258 254 240 224 229 246 174 97 90 95 103 111 117 119 122 117 121 127 126 130 134 145 150 156 165 177 181 198 202 214 235 251 264 269
307 307 306 305 308 270 252 257 254 241 257 18 55 74 73 84 87 90 99 101 100 104 106 111 113 110 106 112 132 143 148 166 175 167 185 199 205 219 217 245 256 257 261
324 327 330 337 352 6 13 17 31 51 60 62 66 70 78 86 93 91 93 97 100 97 94 97 105 116 118 118 128 143 136 136 159 183 185 207 225 229 242 245 248 256 262
345 348 353 355 360 8 21 32 38 42 48 53 63 71 77 84 88 90 90 91 92 89 83 88 94 124 137 148 160 170 183 194 187 187 195 216 240 242 241 248 254 256 253
0 5 6 7 11 13 21 32 41 47 53 55 61 68 77 82 84 89 89 90 90 92 103 106 120 126 139 157 176 191 207 213 212 214 201 213 230 244 238 238 247 249 252